Regional Weather Roundup
Issued by NWS

Home | Current Version | Previous Version | Graphics & Text | Print | Product List | Glossary On
Versions: 1 2 3 4 5 6 7 8 9 10 11 12 13 14 15 16 17 18 19 20 21 22 23 24 25 26 27 28 29 30 31 32 33 34 35 36 37 38 39 40 41 42 43 44 45 46 47 48 49 50
000
ASUS43 KOAX 191710
RWRNE

WEATHER ROUNDUP FOR NEBRASKA
NATIONAL WEATHER SERVICE OMAHA NE
1200 PM CDT SAT AUG 19 2017

NOTES: SATELLITE DATA IS BEING USED TO AUGMENT CLOUD COVER ABOVE
       12000 FEET.
       "FAIR" INDICATES FEW OR NO CLOUDS BELOW 12,000 FEET WITH NO
       SIGNIFICANT WEATHER AND/OR OBSTRUCTIONS TO VISIBILITY.


NEZ001>004-019>022-054>056-191800-
NEBRASKA PANHANDLE

CITY           SKY/WX    TMP DP  RH WIND       PRES   REMARKS
SCOTTSBLUFF    SUNNY     83  47  28 NW10      29.97F
ALLIANCE       SUNNY     84  47  27 W14       29.95S
CHADRON        SUNNY     83  50  31 W6        29.90F
GORDON         FAIR      82  55  38 W7        29.91F
KIMBALL        SUNNY     88  43  20 W15       30.05F
SIDNEY         SUNNY     88  51  28 W3        30.01F
$$

NEZ057>060-069>072-079>082-191800-
SOUTHWEST NEBRASKA

CITY           SKY/WX    TMP DP  RH WIND       PRES   REMARKS
NORTH PLATTE   SUNNY     84  68  58 S10       29.94F
IMPERIAL       SUNNY     85  63  47 S13       29.98F
LEXINGTON      SUNNY     82  67  59 S12       29.97S
MCCOOK         SUNNY     89  68  49 S13       29.96F HX  93
OGALLALA       SUNNY     82  64  54 S10       29.96F
$$

NEZ005>010-023>029-035>040-094-191800-
NORTH CENTRAL NEBRASKA

CITY           SKY/WX    TMP DP  RH WIND       PRES   REMARKS
VALENTINE      SUNNY     87  53  31 S17       29.88F
AINSWORTH      SUNNY     80  60  48 S15       29.92F
BROKEN BOW     SUNNY     85  59  41 S17G24    29.95F
O`NEILL        SUNNY     78  62  56 S14       29.95F
ORD            SUNNY     81  62  52 S12       29.93F
THEDFORD       SUNNY     84  60  43 S17G23    29.93F
$$

NEZ041-046>049-061>064-073>077-083>087-191800-
SOUTH CENTRAL NEBRASKA

CITY           SKY/WX    TMP DP  RH WIND       PRES   REMARKS
GRAND ISLAND   SUNNY     79  67  66 SE13      29.98F
AURORA         SUNNY     77  68  73 SE7       29.98F
HASTINGS       SUNNY     81  67  62 SE8       29.99F
HEBRON         SUNNY     83  67  57 CALM      29.98F
HOLDREGE       SUNNY     80  65  61 S14       29.97F
KEARNEY        SUNNY     82  69  64 S13       29.97F
YORK           SUNNY     75  66  73 SE7       29.98F
$$

NEZ011>018-030>034-042>045-191800-
NORTHEAST NEBRASKA

CITY           SKY/WX    TMP DP  RH WIND       PRES   REMARKS
NORFOLK        SUNNY     77  62  59 SE7       29.96F
ALBION         SUNNY     76  65  69 SE9       29.96F
BLAIR          SUNNY     76  63  63 CALM      29.99R
COLUMBUS       SUNNY     76  65  68 E8        29.98F
FREMONT        SUNNY     77  62  59 E5        29.99S
TEKAMAH        SUNNY     74  64  71 CALM      29.97F
WAYNE          SUNNY     75  64  68 SE6       29.97F
$$

NEZ050>053-065>068-078-088>093-191800-
SOUTHEAST NEBRASKA

CITY           SKY/WX    TMP DP  RH WIND       PRES   REMARKS
LINCOLN        SUNNY     80  59  48 E6        29.99S
OMAHA EPPLEY   SUNNY     80  62  54 CALM      29.98S
BEATRICE       SUNNY     83  65  55 SE6       29.98S
FALLS CITY     SUNNY     81  64  56 MISG      29.98S
NEBRASKA CITY  SUNNY     79  59  49 E5        29.99S
PLATTSMOUTH    SUNNY     78  61  55 E3        29.99S
$$

NEZ044-045-051>053-067-191800-
OMAHA AREA

CITY           SKY/WX    TMP DP  RH WIND       PRES   REMARKS
OMAHA EPPLEY   SUNNY     80  62  54 CALM      29.98S
BLAIR          SUNNY     76  63  63 CALM      29.99R
FREMONT        SUNNY     77  62  59 E5        29.99S
MILLARD        SUNNY     80  61  52 CALM      29.98S
OFFUTT AFB     SUNNY     79  60  52 NE3       29.97F
PLATTSMOUTH    SUNNY     78  61  55 E3        29.99S
WAHOO          FAIR      77  63  63 E6        29.98F
$$




USA.gov is the U.S. government's official web portal to all federal, state and local government web resources and services.